Regional Weather Roundup
Issued by NWS Charleston, SC

Current Version | Previous Version | Text Only | Print | Product List | Glossary Off
Versions: 1 2 3 4 5 6 7 8 9 10 11 12 13 14 15 16 17 18 19 20 21 22 23 24 25 26 27 28 29 30 31 32 33 34 35 36 37 38 39 40 41 42 43 44 45 46 47 48 49 50

000
ASUS42 KCHS 200025
RWRCHS

REGIONAL WEATHER ROUNDUP
NATIONAL WEATHER SERVICE CHARLESTON SC
700 PM EST FRI DEC 19 2014

NOTE: "FAIR" INDICATES FEW OR NO CLOUDS BELOW 12,000 FEET WITH NO
SIGNIFICANT WEATHER AND/OR OBSTRUCTIONS TO VISIBILITY.

NOT ALL STATIONS ARE QUALITY CONTROLLED BY THE NATIONAL
WEATHER SERVICE. USE DATA WITH CAUTION...ESPECIALLY
DEWPOINT OBSERVATIONS.

SCZ027-030-031-034>040-042>050-200100-
...SOUTHEAST SOUTH CAROLINA...

CITY           SKY/WX    TMP DP  RH WIND       PRES   REMARKS
N CHARLESTON   CLOUDY    53  44  71 E7        30.13S
6HR MIN TEMP:  53; 6HR MAX TEMP:  61;

WATERFRONT PRK   N/A     54 N/A N/A NE6         N/A
MOUNT PLEASANT FAIR      50  46  87 CALM      30.13F
PINOPOLIS        N/A     55  46  71 VRB3      30.04F
MONCKS CORNER  FAIR      52  45  76 CALM      30.13S
SUMMERVILLE    NOT AVBL
BEAUFORT MCAS  MOCLDY    54  49  83 E3        30.12R
6HR MIN TEMP:  53; 6HR MAX TEMP:  63;

BEAUFORT ARPT  FAIR      52  50  93 E5        30.11S
HILTON HEAD IS MOCLDY    54  50  87 NE3       30.13R
WALTERBORO     MOCLDY    54  43  66 E3        30.13R
ALLENDALE      FAIR      50  45  81 CALM      30.11R

...SOUTHERN MIDLANDS AND PEE DEE...

CITY           SKY/WX    TMP DP  RH WIND       PRES   REMARKS
GEORGETOWN     NOT AVBL
KINGSTREE      NOT AVBL
ORANGEBURG     MOCLDY    52  42  69 NE3       30.12R
6HR MIN TEMP:  52; 6HR MAX TEMP:  61;

BARNWELL       FAIR      52  45  76 CALM      30.12R
AIKEN          FAIR      52  43  71 E5        30.14S
MANNING        NOT AVBL
COLUMBIA       MOCLDY    55  39  54 NE3       30.13R
6HR MIN TEMP:  54; 6HR MAX TEMP:  63;

SUMTER         MOCLDY    47  35  63 NE5       30.12R
6HR MIN TEMP:  47; 6HR MAX TEMP:  60;

FLORENCE       PTCLDY    49  35  58 CALM      30.15R
6HR MIN TEMP:  47; 6HR MAX TEMP:  60;

MYRTLE BEACH   CLEAR     46  39  76 CALM      30.17R
N MYRTLE BEACH MOCLDY    44  40  85 CALM      30.15R
6HR MIN TEMP:  44; 6HR MAX TEMP:  58;


$$

GAZ063-065-086>088-099>101-113>116-118-119-134>141-150-200100-
...SOUTHEAST GEORGIA...

CITY           SKY/WX    TMP DP  RH WIND       PRES   REMARKS
SAVANNAH ARPT  MOCLDY    55  42  61 E6        30.11R
6HR MIN TEMP:  53; 6HR MAX TEMP:  64;

HUNTER AAF     MOCLDY    55  47  75 NE2       30.09R
6HR MIN TEMP:  55; 6HR MAX TEMP:  64;

FORT STEWART   CLOUDY    52  47  82 E6        30.08S
6HR MIN TEMP:  52; 6HR MAX TEMP:  62;

STATESBORO     MOCLDY    47  47 100 CALM      30.11R
SYLVANIA       MOCLDY    49  48  95 CALM      30.11S
CLAXTON        FAIR      48  46  93 CALM      30.11R

...CSRA...CENTRAL AND FAR SOUTHEAST GEORGIA...

CITY           SKY/WX    TMP DP  RH WIND       PRES   REMARKS
THOMSON        MOCLDY    50  47  87 CALM      30.16R
AUGUSTA-BUSH   CLOUDY    49  42  77 CALM      30.10S
6HR MIN TEMP:  49; 6HR MAX TEMP:  64;

AUGUSTA-DANIEL CLOUDY    57  41  55 N6        30.10S
SWAINSBORO     FAIR      50  46  87 CALM      30.12R
VIDALIA        PTCLDY    50  45  81 CALM      30.10S
EASTMAN        FAIR      48  47  96 CALM      30.14R
HAZLEHURST     FAIR      50  47  90 CALM      30.10R
ALMA           CLEAR     50  42  74 CALM      30.09R
6HR MIN TEMP:  50; 6HR MAX TEMP:  66;

WAYCROSS       PTCLDY    55  47  75 CALM      30.09R
JESUP          FAIR      55  46  71 NE5       30.09S
BAXLEY         FAIR      50  45  81 CALM      30.10R
BRUNSWICK      CLOUDY    54  43  66 CALM      30.10R
SAINT SIMONS   CLOUDY    57  47  69 E6        30.09F
6HR MIN TEMP:  56; 6HR MAX TEMP:  65;


$$

SCZ027-028-034-036>038-045-046-048>050-GAZ119-141-200100-
...LAKE AND SUPPLEMENTAL COASTAL OBSERVATIONS...

STATION/POSITION TIME  TEMP    WIND        PRES    WAVE   SWELL
                       AIR SEA DIR/SP/G            HT/PER HT/PER/DIR
                 (UTC) (F)     (DEG/KT/KT) (MB)    (FT/S) (FT/S/D)
UPR LAKE MARION  NOT AVBL
WINYAH BAY       0000   49        CALM     1020.0S
LAKE MURRAY      0000   53     210/  1/  2 1019.6R
ACE BASIN NERRS  0000   52        CALM     1020.0R
FORT PULASKI     0000   56 57   80/  9/ 10 1019.9R
SAPELO ISLAND    0000   55     100/  5     1019.0S

$$

ANZ835-935-AMZ111-154-330-350-352-354-370-450-454-472-200100-
...C-MAN AND BUOY OBSERVATIONS...

STATION/POSITION TIME  TEMP    WIND        PRES    WAVE   SWELL
                       AIR SEA DIR/SP/G            HT/PER HT/PER/DIR
                 (UTC) (F)     (DEG/KT/KT) (MB)    (FT/S) (FT/S/D)
BUOY 41004       0000   63 68   90/  2/  6 1019.7R   2/ 9   2/ 9
BUOY 41008       0000   58 58   90/  6/  8 1018.9F   1/10   2/110/10
FOLLY BEACH CMAN 0000   55      60/ 10/ 11 1020.7R
CAPERS NEARSHORE 2300   55      60/ 10/ 12   N/A
FRIPP NEARSHORE  NOT AVBL


STATION/POSITION TIME  TEMP    WIND        PRES    WAVE   SWELL
                       AIR SEA DIR/SP/G            HT/PER HT/PER/DIR
                 (UTC) (F)     (DEG/KT/KT) (MB)    (FT/S) (FT/S/D)
5E ST. MARYS GA  0000      61                N/A     1/10
FRYING PAN BUOY  0000   56 65   50/  6/  8 1021.8R   2/ 8   2/ 70/ 8
BUOY 41025       0000   46                 1022.3R   3/ 7
CAPE LOOKOUT NC  0000   47      20/  7/  8 1021.9R
BUOY 41002       NOT AVBL
BUOY 41010       0000   71 76   20/  6/  8 1019.4R   2/11   2/ 80/11
ST AUGUSTINE FL  0000   62      80/  7/  8 1019.6S


$$



USA.gov is the U.S. government's official web portal to all federal, state and local government web resources and services.